IW8PDD-3 Weather Reports


time (UTC)temp
F
wind
direction
speed
knots
gust
knots
rain 1hr
in
rain 24hr
in
rain mn
in
humidity
%
barometer
mb
20260504050504 61 0.0 0.0 0.00 0.00 0.00 52 1020.1
20260504044501 61 0.0 0.0 0.00 0.00 0.00 51 1019.9
20260504042457 60 0.0 0.0 0.00 0.00 0.00 51 1019.7
20260504040454 60 0.0 0.0 0.00 0.00 0.00 51 1019.7
20260504034450 60 0.0 0.0 0.00 0.00 0.00 51 1019.8
20260504032447 60 0.0 0.0 0.00 0.00 0.00 51 1019.8
20260504024440 60 0.0 0.0 0.00 0.00 0.00 50 1019.7
20260504022437 60 0.0 0.0 0.00 0.00 0.00 50 1019.8
20260504020433 60 0.0 0.0 0.00 0.00 0.00 50 1019.8
20260504002416 61 0.0 0.0 0.00 0.00 0.00 48 1020.0
20260504000412 61 0.0 0.0 0.00 0.00 0.00 48 1020.0
20260503234409 62 0.0 0.0 0.00 0.00 0.00 48 1020.1
20260503232405 62 0.0 0.0 0.00 0.00 0.00 48 1020.4
20260503230402 62 0.0 0.0 0.00 0.00 0.00 48 1020.4
20260503224358 62 0.0 0.0 0.00 0.00 0.00 48 1020.5
20260503222355 62 0.0 0.0 0.00 0.00 0.00 48 1020.5
20260503220351 63 0.0 0.0 0.00 0.00 0.00 49 1020.4
20260503214348 64 0.0 0.0 0.00 0.00 0.00 51 1020.7
20260503212345 64 0.0 0.0 0.00 0.00 0.00 52 1020.6
20260503210341 63 0.0 0.0 0.00 0.00 0.00 51 1020.6
20260503204338 64 0.0 0.0 0.00 0.00 0.00 52 1020.5
20260503202334 64 0.0 0.0 0.00 0.00 0.00 54 1020.5
20260503200331 65 0.0 0.0 0.00 0.00 0.00 55 1020.6
20260503194328 65 0.0 0.0 0.00 0.00 0.00 55 1020.7
20260503192324 66 0.0 0.0 0.00 0.00 0.00 54 1020.7
20260503190320 66 0.0 0.0 0.00 0.00 0.00 54 1020.4
20260503184317 66 0.0 0.0 0.00 0.00 0.00 54 1020.3
20260503182313 66 0.0 0.0 0.00 0.00 0.00 53 1020.2
20260503180310 67 0.0 0.0 0.00 0.00 0.00 51 1020.0
20260503174306 68 0.0 0.0 0.00 0.00 0.00 51 1019.9
20260503172305 69 0.0 0.0 0.00 0.00 0.00 50 1019.6
20260503170259 70 0.0 0.0 0.00 0.00 0.00 49 1019.7
20260503150239 87 0.0 0.0 0.00 0.00 0.00 40 1019.6
20260503140228 83 0.0 0.0 0.00 0.00 0.00 46 1020.0
20260503130218 74 0.0 0.0 0.00 0.00 0.00 50 1020.4
20260503120207 73 0.0 0.0 0.00 0.00 0.00 52 1021.0
20260503110157 68 0.0 0.0 0.00 0.00 0.00 56 1021.1
20260503100147 67 0.0 0.0 0.00 0.00 0.00 56 1021.4
20260503090136 66 0.0 0.0 0.00 0.00 0.00 55 1021.5
20260503070116 64 0.0 0.0 0.00 0.00 0.00 55 1021.7
20260503060105 63 0.0 0.0 0.00 0.00 0.00 57 1021.4
20260503054102 62 0.0 0.0 0.00 0.00 0.00 57 1021.5
20260503052058 61 0.0 0.0 0.00 0.00 0.00 57 1021.4